Flag for Colombia Weather past 2 weeks in Medellin, Colombia

Now
70 °F

Partly sunny.


Feels Like: 70 °F
Forecast: N/A
Wind: 10 mph from East

Location: Rionegro / J. M. Cordova

Current Time: Jul 29, 2015 at 5:36:49 PM

Latest Report: Jul 29, 2015 at 5:00 PM


Visibility: N/A

Pressure: 30.20 "Hg (25.43 "Hg at 1479m altitude)

Humidity: 53%

Dew point: 52 °F

Location of MedellinLocation

Historic Weather in Medellin — Graph

°F

Medellin temperature yesterday

Maximum temperature yesterday: 73 °F (at 2:00 PM)
Minimum temperature yesterday: 52 °F (at 5:00 AM)
Average temperature yesterday: 64 °F

Past Weeks' High & Low Weather Summary

 TemperatureHumidityPressure
High75 °F (Jul 25, 12:00 PM)100% (Jul 15, 1:00 AM)30.39 "Hg (Jul 15, 1:00 AM)
Low50 °F (Jul 25, 6:00 AM)38% (Jul 17, 3:00 PM)30.17 "Hg (Jul 27, 4:00 PM)
Average63 °F78%30.29 "Hg
* Reported Jul 14 4:00 PM — Jul 29 4:00 PM, Medellin, Weather by CustomWeather, © 2015

Note: Actual official high and low records may vary slightly from our data, if they occured in-between our weather recording intervals... More about our weather records

Advertising

Medellin weather history for previous 24 hours

 ConditionsComfort  
Time TempWeatherWind HumidityBarometerVisibility
4:00 PM
Wed, Jul 29
72 °FPartly sunny.13 mph50%30.20 "HgN/A
3:00 PM73 °FPartly sunny.12 mph50%30.22 "HgN/A
2:00 PM73 °FPartly sunny.9 mph47%30.24 "HgN/A
1:00 PM72 °FBroken clouds.12 mph53%30.26 "HgN/A
12:00 PM70 °FBroken clouds.16 mph53%30.30 "HgN/A
11:00 AM68 °FBroken clouds.14 mph56%30.31 "HgN/A
10:00 AM66 °FBroken clouds.7 mph68%30.31 "HgN/A
9:00 AM63 °FPartly sunny.3 mph77%30.31 "HgN/A
8:00 AM59 °FPartly sunny.3 mph88%30.30 "HgN/A
7:00 AM55 °FBroken clouds.No wind94%30.29 "HgN/A
6:00 AM55 °FBroken clouds.3 mph94%30.26 "HgN/A
5:00 AM55 °FPartly cloudy.No wind94%30.26 "HgN/A
4:00 AM55 °FPartly cloudy.6 mph94%30.25 "HgN/A
3:00 AM57 °FPartly cloudy.No wind94%30.27 "Hg5 mi
2:00 AM57 °FThunderstorms. Partly cloudy.2 mph94%30.30 "Hg4 mi
1:00 AM57 °FThunderstorms. Passing clouds.No wind94%30.34 "Hg5 mi
12:00 AM61 °FLight rain. Passing clouds.5 mph88%30.33 "HgN/A
11:00 PM
Tue, Jul 28
63 °FPassing clouds.5 mph83%30.28 "HgN/A
10:00 PM61 °FPassing clouds.No wind83%30.30 "HgN/A
9:00 PM63 °FPassing clouds.7 mph83%30.27 "HgN/A
8:00 PM64 °FPassing clouds.No wind73%30.23 "HgN/A
7:00 PM66 °FPassing clouds.7 mph68%30.22 "HgN/A
6:00 PM68 °FPartly sunny.7 mph60%30.20 "HgN/A
5:00 PM72 °FPartly sunny.12 mph50%30.17 "HgN/A
Weather by CustomWeather, © 2015

See weather overviewHow to use our weather pages